Flag for U.S.A. Weather past 2 weeks in Glendale, California, U.S.A.

Now
72 °F

Sunny.


Feels Like: 77 °F
Forecast: 58 / 84 °F
Wind: 8 mph from South

Location: Burbank-Glendale-Pasadena Airport

Current Time: May 28, 2015 at 7:43:58 PM

Latest Report: May 28, 2015 at 6:53 PM


Visibility: 10 mi

Pressure: 29.86 "Hg

Humidity: 55%

Dew point: 55 °F

Location of GlendaleLocation

Historic Weather in Glendale — Graph

°F

Glendale temperature yesterday

Maximum temperature yesterday: 74 °F (at 1:53 PM)
Minimum temperature yesterday: 58 °F (at 12:53 AM)
Average temperature yesterday: 63 °F

Past Weeks' High & Low Weather Summary

 TemperatureHumidityPressure
High79 °F (May 28, 2:53 PM)89% (May 14, 10:53 PM)30.06 "Hg (May 14, 10:53 PM)
Low52 °F (May 15, 1:53 AM)42% (May 15, 5:53 PM)29.78 "Hg (May 15, 4:53 PM)
Average62 °F65%29.94 "Hg
* Reported May 13 5:53 PM — May 28 5:53 PM, Glendale, Weather by CustomWeather, © 2015

Note: Actual official high and low records may vary slightly from our data, if they occured in-between our weather recording intervals... More about our weather records

Advertising

Glendale weather history for previous 24 hours

 ConditionsComfort  
Time TempWeatherWind HumidityBarometerVisibility
5:53 PM
Thu, May 28
76 °FSunny.9 mph47%29.86 "Hg10 mi
4:53 PM77 °FSunny.7 mph47%29.87 "Hg10 mi
3:53 PM78 °FSunny.9 mph45%29.87 "Hg10 mi
2:53 PM79 °FSunny.10 mph44%29.89 "Hg10 mi
1:53 PM77 °FSunny.7 mph47%29.91 "Hg10 mi
12:53 PM75 °FSunny.10 mph50%29.93 "Hg6 mi
11:53 AM71 °FSunny.9 mph55%29.95 "Hg8 mi
10:53 AM68 °FSunny.6 mph61%29.96 "Hg6 mi
9:53 AM64 °FSunny.5 mph68%29.96 "Hg6 mi
8:53 AM58 °FLow clouds.5 mph84%29.97 "Hg4 mi
7:53 AM57 °FFog.5 mph87%29.97 "Hg3 mi
6:53 AM56 °FLow clouds.3 mph87%29.95 "Hg7 mi
5:53 AM55 °FClear.3 mph87%29.93 "Hg10 mi
4:53 AM57 °FClear.3 mph81%29.92 "Hg10 mi
3:53 AM57 °FClear.No wind81%29.91 "Hg10 mi
2:53 AM58 °FClear.No wind78%29.92 "Hg10 mi
1:53 AM58 °FClear.No wind78%29.93 "Hg10 mi
12:53 AM59 °FClear.3 mph78%29.94 "Hg10 mi
11:53 PM
Wed, May 27
60 °FClear.6 mph75%29.95 "Hg10 mi
10:53 PM61 °FClear.5 mph72%29.95 "Hg10 mi
9:53 PM62 °FClear.6 mph73%29.94 "Hg10 mi
8:53 PM61 °FSunny.6 mph72%29.94 "Hg10 mi
7:53 PM63 °FSunny.9 mph70%29.93 "Hg10 mi
Weather by CustomWeather, © 2015

See weather overviewHow to use our weather pages